Regional Weather Roundup
Issued by NWS

Home | Current Version | Previous Version | Text Only | Print | Product List | Glossary On
Versions: 1 2 3 4 5 6 7 8 9 10 11 12 13 14 15 16 17 18 19 20 21 22 23 24 25 26 27 28 29 30 31 32 33 34 35 36 37 38 39 40 41 42 43 44 45 46 47 48 49 50
000
ASUS43 KLMK 022302
RWRKY
KENTUCKY REGIONAL WEATHER ROUNDUP
NATIONAL WEATHER SERVICE LOUISVILLE KY
600 PM EST FRI DEC 02 2016

NOTE "FAIR" INDICATES FEW OR NO CLOUDS BELOW 12,000 FEET
WITH NO SIGNIFICANT WEATHER AND/OR OBSTRUCTIONS TO VISIBILITY.

KYZ001>023-026-027-061>063-070>075-030000-
WESTERN AND SOUTH CENTRAL KENTUCKY

CITY           SKY/WX    TMP DP  RH WIND       PRES   REMARKS
PADUCAH        CLEAR     46  28  49 CALM      30.29R
HENDERSON      CLEAR     43  28  56 CALM      30.30R
OWENSBORO      CLEAR     43  32  65 VRB5      30.31R
HOPKINSVILLE   CLEAR     47  30  50 N3        30.28R
BOWLING GREEN  CLEAR     48  28  46 NW3       30.28R
GLASGOW        NOT AVBL
$$

KYZ024-025-028>034-038-045-046-053-030000-
NORTH CENTRAL KENTUCKY

CITY           SKY/WX    TMP DP  RH WIND       PRES   REMARKS
LOUISVILLE/SDF CLOUDY    44  28  53 N10       30.28R
LOUISVILLE/LOU CLOUDY    44  29  55 N6        30.28R
FORT KNOX      CLEAR     38  29  68 W3        30.26R
$$

KYZ035>037-039>044-047>052-055>060-089>105-030000-
NORTHEAST KENTUCKY

CITY           SKY/WX    TMP DP  RH WIND       PRES   REMARKS
LEXINGTON      MOCLDY    40  29  64 N6        30.26R
COVINGTON      CLOUDY    39  30  70 W9        30.25R WCI  33
FRANKFORT      CLOUDY    42  29  59 NW3       30.26R
$$

KYZ054-064>069-076>088-106>120-030000-
SOUTHEAST KENTUCKY

CITY           SKY/WX    TMP DP  RH WIND       PRES   REMARKS
JACKSON        CLEAR     39  29  67 N3        30.22R
LONDON         CLEAR     44  25  47 W6        30.23R
SOMERSET       CLEAR     45  27  49 CALM      30.26R
MIDDLESBORO    CLEAR     42  29  61 CALM      30.23R
MONTICELLO     CLEAR     39  29  67 W6        30.27R WCI  35
$$




USA.gov is the U.S. government's official web portal to all federal, state and local government web resources and services.